Algona, IA

9:48 AM CST on December 16, 2017 (GMT -0600)
Algona Municipal

Weather History for KAXA - March, 2012

Change the Weather History Date:

Friday, March 23, 2012

  Actual Average Record
Temperature  
Mean Temperature 57 °F -  
Max Temperature 66 °F 42 °F 77 °F (2003)
Min Temperature 48 °F 27 °F 14 °F (2014)
Degree Days  
Heating Degree Days 8    
Growing Degree Days 7 (Base 50)    
Moisture  
Dew Point 51 °F    
Average Humidity 84    
Maximum Humidity 100    
Minimum Humidity 52    
Precipitation  
Precipitation 0.00 in - - ()
Sea Level Pressure  
Sea Level Pressure 29.93 in    
Wind  
Wind Speed 3 mph (NNW)    
Max Wind Speed 10 mph    
Max Gust Speed -    
Visibility 5 miles    
Events Fog    
Averages and records for this station are not official NWS values.
T = Trace of Precipitation, MM = Missing Value Source: NWS Daily Summary

Daily Weather History Graph

Daily Weather History Graph

Search for Another Location

Airport or City:

Trip Planner

Search our weather history database for the weather conditions in past years. The results will help you decide how hot, cold, wet, or windy it might be!

Date:

Astronomy

Mar. 23, 2012 Rise Set
Actual Time 7:14 AM CDT 7:33 PM CDT
Civil Twilight 6:45 AM CDT 8:01 PM CDT
Nautical Twilight 6:12 AM CDT 8:35 PM CDT
Astronomical Twilight 5:38 AM CDT 9:09 PM CDT
Moon 7:19 AM CDT (3/23) 9:00 PM CDT (3/23)
Length of Visible Light 13h 16m
Length of Day
12h 19m
New Moon, 1% of the Moon is Illuminated
Mar 23
New Moon
Mar 30
First Quarter
Apr 6
Full
Apr 13
Last Quarter
Apr 21
New

Hourly Weather History & Observations

Time (CDT) Temp. Dew Point Humidity Pressure Visibility Wind Dir Wind Speed Gust Speed Precip Events Conditions
12:15 AM 51.8 °F 51.8 °F 100% 29.97 in 0.2 mi Calm Calm - N/A Fog Fog
12:35 AM 48.2 °F 48.2 °F 100% 29.96 in 0.2 mi Calm Calm - N/A Fog Fog
12:55 AM 48.2 °F 48.2 °F 100% 29.95 in 0.2 mi Calm Calm - N/A Fog Fog
1:15 AM 48.2 °F 48.2 °F 100% 29.95 in 0.2 mi East 4.6 mph - N/A Fog Fog
1:35 AM 50.0 °F 50.0 °F 100% 29.95 in 0.2 mi Calm Calm - N/A   Light Drizzle
1:55 AM 48.2 °F 48.2 °F 100% 29.94 in 0.2 mi East 3.5 mph - N/A Fog Fog
2:15 AM 50.0 °F 50.0 °F 100% 29.94 in 0.2 mi East 3.5 mph - N/A Fog Fog
2:55 AM 51.8 °F 51.8 °F 100% 29.95 in 0.2 mi Calm Calm - N/A   Drizzle
3:15 AM 50.0 °F 50.0 °F 100% 29.94 in 0.2 mi SE 3.5 mph - N/A   Light Drizzle
3:35 AM 48.2 °F 48.2 °F 100% 29.94 in 0.2 mi Calm Calm - N/A Fog Fog
3:55 AM 48.2 °F 48.2 °F 100% 29.95 in 0.2 mi Calm Calm - N/A Fog Fog
4:15 AM 48.2 °F 48.2 °F 100% 29.95 in 0.2 mi Calm Calm - N/A Fog Fog
4:35 AM 50.0 °F 50.0 °F 100% 29.95 in 1.0 mi Calm Calm - N/A   Overcast
4:55 AM 50.0 °F 50.0 °F 100% 29.95 in 3.0 mi Calm Calm - N/A   Overcast
5:15 AM 50.0 °F 50.0 °F 100% 29.95 in 3.0 mi Calm Calm - N/A   Overcast
5:35 AM 50.0 °F 50.0 °F 100% 29.95 in 3.0 mi Calm Calm - N/A   Overcast
5:55 AM 51.8 °F 51.8 °F 100% 29.95 in 3.0 mi Calm Calm - N/A   Overcast
6:15 AM 50.0 °F 50.0 °F 100% 29.95 in 3.0 mi Calm Calm - N/A   Overcast
6:35 AM 51.8 °F 51.8 °F 100% 29.95 in 3.0 mi NW 3.5 mph - N/A   Overcast
6:55 AM 51.8 °F 51.8 °F 100% 29.95 in 3.0 mi NNW 3.5 mph - N/A   Mostly Cloudy
7:15 AM 50.0 °F 50.0 °F 100% 29.95 in 2.5 mi North 3.5 mph - N/A   Scattered Clouds
7:35 AM 48.2 °F 48.2 °F 100% 29.96 in 1.0 mi Calm Calm - N/A   Mostly Cloudy
7:55 AM 48.2 °F 48.2 °F 100% 29.96 in 0.8 mi NNW 3.5 mph - N/A   Mostly Cloudy
8:15 AM 48.2 °F 48.2 °F 100% 29.96 in 0.2 mi WNW 3.5 mph - N/A Fog Fog
8:35 AM 48.2 °F 48.2 °F 100% 29.96 in 0.2 mi NNW 4.6 mph - N/A Fog Fog
8:55 AM 50.0 °F 50.0 °F 100% 29.97 in 0.2 mi NNW 4.6 mph - N/A Fog Fog
9:15 AM 51.8 °F 51.8 °F 100% 29.96 in 0.2 mi North 5.8 mph - N/A Fog Fog
9:35 AM 51.8 °F 51.8 °F 100% 29.96 in 0.2 mi NNW 5.8 mph - N/A Fog Fog
9:55 AM 51.8 °F 51.8 °F 100% 29.97 in 1.8 mi North 3.5 mph - N/A   Overcast
10:15 AM 53.6 °F 53.6 °F 100% 29.96 in 7.0 mi North 3.5 mph - N/A   Mostly Cloudy
10:35 AM 55.4 °F 55.4 °F 100% 29.97 in 10.0 mi NNE 4.6 mph - N/A   Scattered Clouds
10:55 AM 55.4 °F 53.6 °F 94% 29.96 in 10.0 mi North 3.5 mph - N/A   Scattered Clouds
11:15 AM 57.2 °F 51.8 °F 82% 29.96 in 10.0 mi NNW 5.8 mph - N/A   Scattered Clouds
11:35 AM 57.2 °F 53.6 °F 88% 29.95 in 10.0 mi NNW 4.6 mph - N/A   Scattered Clouds
11:55 AM 59.0 °F 53.6 °F 82% 29.95 in 10.0 mi NNW 6.9 mph - N/A   Scattered Clouds
12:15 PM 60.8 °F 53.6 °F 77% 29.94 in 10.0 mi NNW 8.1 mph - N/A   Mostly Cloudy
12:35 PM 62.6 °F 53.6 °F 72% 29.94 in 10.0 mi North 8.1 mph - N/A   Mostly Cloudy
12:55 PM 62.6 °F 53.6 °F 72% 29.93 in 10.0 mi NNW 8.1 mph - N/A   Scattered Clouds
1:15 PM 62.6 °F 51.8 °F 68% 29.93 in 10.0 mi NNW 9.2 mph - N/A   Scattered Clouds
1:35 PM 62.6 °F 51.8 °F 68% 29.92 in 10.0 mi NNW 10.4 mph - N/A   Scattered Clouds
1:55 PM 64.4 °F 51.8 °F 64% 29.92 in 10.0 mi NNW 9.2 mph - N/A   Scattered Clouds
2:15 PM 64.4 °F 51.8 °F 64% 29.91 in 10.0 mi NNW 10.4 mph - N/A   Mostly Cloudy
2:35 PM 64.4 °F 50.0 °F 59% 29.91 in 10.0 mi NNW 9.2 mph - N/A   Scattered Clouds
2:55 PM 64.4 °F 50.0 °F 59% 29.90 in 10.0 mi NNW 8.1 mph - N/A   Scattered Clouds
3:15 PM 64.4 °F 48.2 °F 56% 29.90 in 10.0 mi NNW 8.1 mph - N/A   Clear
3:35 PM 64.4 °F 50.0 °F 59% 29.90 in 10.0 mi North 6.9 mph - N/A   Clear
3:55 PM 66.2 °F 48.2 °F 52% 29.90 in 10.0 mi North 8.1 mph - N/A   Clear
4:15 PM 66.2 °F 48.2 °F 52% 29.89 in 10.0 mi NNW 6.9 mph - N/A   Clear
4:35 PM 66.2 °F 50.0 °F 56% 29.89 in 10.0 mi North 3.5 mph - N/A   Clear
4:55 PM 66.2 °F 48.2 °F 52% 29.88 in 10.0 mi NNW 9.2 mph - N/A   Clear
5:15 PM 66.2 °F 50.0 °F 56% 29.88 in 10.0 mi NW 10.4 mph - N/A   Scattered Clouds
5:35 PM 66.2 °F 50.0 °F 56% 29.89 in 10.0 mi North 6.9 mph - N/A   Clear
5:55 PM 66.2 °F 50.0 °F 56% 29.89 in 10.0 mi North 8.1 mph - N/A   Clear
6:15 PM 64.4 °F 50.0 °F 59% 29.88 in 10.0 mi North 4.6 mph - N/A   Clear
6:35 PM 64.4 °F 50.0 °F 59% 29.88 in 10.0 mi North 4.6 mph - N/A   Clear
6:55 PM 64.4 °F 50.0 °F 59% 29.89 in 10.0 mi NNE 5.8 mph - N/A   Clear
7:15 PM 62.6 °F 51.8 °F 68% 29.90 in 10.0 mi NNE 4.6 mph - N/A   Clear
7:35 PM 60.8 °F 50.0 °F 68% 29.89 in 10.0 mi North 3.5 mph - N/A   Clear
7:55 PM 60.8 °F 48.2 °F 63% 29.88 in 10.0 mi NNW 6.9 mph - N/A   Clear
8:15 PM 60.8 °F 50.0 °F 68% 29.88 in 10.0 mi NW 8.1 mph - N/A   Clear
8:35 PM 59.0 °F 48.2 °F 67% 29.88 in 10.0 mi NW 5.8 mph - N/A   Clear
8:55 PM 55.4 °F 50.0 °F 82% 29.89 in 10.0 mi North 5.8 mph - N/A   Clear
9:15 PM 57.2 °F 48.2 °F 72% 29.89 in 10.0 mi North 3.5 mph - N/A   Clear
9:35 PM 55.4 °F 48.2 °F 77% 29.90 in 10.0 mi North 3.5 mph - N/A   Clear
9:55 PM 55.4 °F 48.2 °F 77% 29.90 in 10.0 mi NNW 5.8 mph - N/A   Clear
10:15 PM 55.4 °F 48.2 °F 77% 29.90 in 10.0 mi WNW 4.6 mph - N/A   Clear
10:35 PM 53.6 °F 48.2 °F 82% 29.90 in 10.0 mi NNW 6.9 mph - N/A   Clear
10:55 PM 53.6 °F 46.4 °F 77% 29.90 in 10.0 mi NNW 3.5 mph - N/A   Clear
11:15 PM 53.6 °F 46.4 °F 77% 29.90 in 10.0 mi Calm Calm - N/A   Scattered Clouds
11:35 PM 51.8 °F 46.4 °F 82% 29.90 in 10.0 mi NNW 4.6 mph - N/A   Mostly Cloudy
11:55 PM 51.8 °F 46.4 °F 82% 29.90 in 10.0 mi NW 5.8 mph - N/A   Scattered Clouds